This is the latest recevied weather packets stored in our database for station/object SQ4IXR-4. If no packets are shown the sender has not sent any weather packets the latest 10 day(s).
| Time | Temp. | Humidity | Pressure | Rain* | Wind** | Luminosity | Snow |
|---|---|---|---|---|---|---|---|
| 1788473614 | 17.78° C | 79% | 1017.3 hPa | - | - | - | - |
| 1788472789 | 17.78° C | 76% | 1017.5 hPa | - | - | - | - |
| 1788471966 | 18.33° C | 71% | 1017.6 hPa | - | - | - | - |
| 1788471143 | 18.33° C | 69% | 1017.8 hPa | - | - | - | - |
| 1788470319 | 18.33° C | 67% | 1017.7 hPa | - | - | - | - |
| 1788469494 | 18.33° C | 67% | 1017.8 hPa | - | - | - | - |
| 1788468671 | 17.78° C | 67% | 1017.8 hPa | - | - | - | - |
| 1788467848 | 17.78° C | 66% | 1017.8 hPa | - | - | - | - |
| 1788467023 | 18.33° C | 66% | 1017.8 hPa | - | - | - | - |
| 1788466199 | 17.78° C | 66% | 1018 hPa | - | - | - | - |
| 1788465376 | 17.78° C | 67% | 1018 hPa | - | - | - | - |
| 1788464552 | 17.78° C | 66% | 1018.1 hPa | - | - | - | - |
| 1788463728 | 17.78° C | 66% | 1018.2 hPa | - | - | - | - |
| 1788462905 | 17.78° C | 66% | 1018.3 hPa | - | - | - | - |
| 1788462082 | 17.78° C | 64% | 1018.4 hPa | - | - | - | - |
| 1788461259 | 17.78° C | 62% | 1018.5 hPa | - | - | - | - |
| 1788460435 | 18.33° C | 61% | 1018.5 hPa | - | - | - | - |
| 1788459612 | 18.33° C | 61% | 1018.6 hPa | - | - | - | - |
| 1788458789 | 18.33° C | 60% | 1018.6 hPa | - | - | - | - |
| 1788457966 | 18.33° C | 59% | 1018.5 hPa | - | - | - | - |
| 1788457143 | 18.89° C | 58% | 1018.6 hPa | - | - | - | - |
| 1788456321 | 19.44° C | 56% | 1018.3 hPa | - | - | - | - |
| 1788455499 | 20° C | 51% | 1018.2 hPa | - | - | - | - |
| 1788454674 | 20.56° C | 49% | 1018.2 hPa | - | - | - | - |
| 1788453852 | 20.56° C | 47% | 1018.2 hPa | - | - | - | - |
* Rain since midnight (hover to see other rain measurements)
** Current wind speed in m/s (hover to see current wind gust speed)